Regional Weather Roundup
Issued by NWS

Home | Current Version | Previous Version | Text Only | Print | Product List | Glossary Off
Versions: 1 2 3 4 5 6 7 8 9 10 11 12 13 14 15 16 17 18 19 20 21 22 23 24 25 26 27 28 29 30 31 32 33 34 35 36 37 38 39 40 41 42 43 44 45 46 47 48 49 50

000
ASUS44 KMEG 011000
RWRTN
TENNESSEE HOURLY STATE WEATHER ROUNDUP
NATIONAL WEATHER SERVICE MEMPHIS TN
500 AM CDT FRI AUG 01 2014

TNZ002-004-019-021-049-052-054-088>092-011100-
WEST TENNESSEE

CITY           SKY/WX    TMP DP  RH WIND       PRES   REMARKS
MEMPHIS INTL   CLOUDY    72  66  81 NE6       30.05S
NWS MEMPHIS      N/A     70 N/A N/A MISG        N/A
JACKSON        CLOUDY    68  64  87 NW3       30.06R
DYERSBURG      MOCLDY    70  59  68 CALM      30.08R
PARIS          PTCLDY    63  61  94 N5        30.08R
SAVANNAH       CLOUDY    63  63 100 CALM      30.06S
$$

TNZ008-025-027-028-033-062-065-066-011100-
NORTH MIDDLE TENNESSEE

CITY           SKY/WX    TMP DP  RH WIND       PRES   REMARKS
NASHVILLE      PTCLDY    64  62  93 CALM      30.07R
CLARKSVILLE    CLEAR     62  59  90 CALM      30.07R
COOKEVILLE     CLEAR     61  61 100 CALM      30.08R
CROSSVILLE     PTCLDY    61  58  90 CALM      30.12R
$$

TNZ061-075-076-078-094-096-097-011100-
SOUTH MIDDLE TENNESSEE

CITY           SKY/WX    TMP DP  RH WIND       PRES   REMARKS
SHELBYVILLE    CLEAR     61  61 100 E3        30.08S
$$

TNZ017-018-042-046-047-011100-
NORTHEAST TENNESSEE

CITY           SKY/WX    TMP DP  RH WIND       PRES   REMARKS
TRI CITIES     CLOUDY    66  59  78 CALM      30.11S
ELIZABETHTON   LGT RAIN  63  61  94 NE3       30.13R
$$

TNZ012-013-036-069-073-074-011100-
CENTRAL EAST TENNESSEE

CITY           SKY/WX    TMP DP  RH WIND       PRES   REMARKS
KNOXVILLE      PTCLDY    65  64  97 CALM      30.08R
OAK RIDGE      MOCLDY    66  63  90 CALM      30.09S
GATLINBURG     SUNNY     63  63 100 CALM      30.08S
$$

TNZ083-085-099-011100-
SOUTHEAST TENNESSEE

CITY           SKY/WX    TMP DP  RH WIND       PRES   REMARKS
CHATTANOOGA    MOCLDY    67  64  90 CALM      30.07R
$$

SKY/WX REPORTED AS FAIR MEANS FEW OR NO CLOUDS BELOW
12 THOUSAND FEET.



USA.gov is the U.S. government's official web portal to all federal, state and local government web resources and services.